Hourly Data Report for October 06, 2017

All times are specified in Local Standard Time (LST). Add 1 hour to adjust for Daylight Saving Time where and when it is observed.

ATIKOKAN (AUT)
ONTARIO

48°45'40.000" N
91°37'41.000" W
389.30 m
6020LPQ
71747
WCH

Download Data

Hourly Data (October 2017)
Hourly Data Report for October 6, 2017
Temp Definition
°C
Dew Point Temp Definition
°C
Rel Hum Definition
%
Wind Dir Definition
10's deg

Wind Spd Definition
km/h
Visibility Definition
km
Stn Press Definition
kPa
Hmdx Definition


Wind Chill Definition


Weather Definition


TIME
00:00 -0.2 -0.6 97   0   97.15     LegendNANA
01:00 -0.8 -1.1 98   0   97.16     LegendNANA
02:00 -1.1 -1.5 98   0   97.14     LegendNANA
03:00 -1.5 -1.8 98   0   97.14     LegendNANA
04:00 -1.7 -2.0 98   0   97.15     LegendNANA
05:00 -2.0 -2.3 98   0   97.14     LegendNANA
06:00 -2.1 -2.5 97 0 1   97.10   -2 LegendNANA
07:00 -1.3 -1.6 98   0   97.08     LegendNANA
08:00 2.2 1.2 94   0   97.08     LegendNANA
09:00 7.8 3.9 76 0 1   97.04     LegendNANA
10:00 9.5 1.3 57 26 6   97.00     LegendNANA
11:00 11.0 1.0 50 23 12   97.01     LegendNANA
12:00 11.7 0.9 48 26 8   96.85     LegendNANA
13:00 12.1 1.1 47 22 7   96.76     LegendNANA
14:00 11.8 2.2 52 21 9   96.64     LegendNANA
15:00 11.8 1.9 50 21 6   96.54     LegendNANA
16:00 11.5 2.7 55 19 4   96.39     LegendNANA
17:00 10.5 4.2 65 20 5   96.36     LegendNANA
18:00 10.0 4.4 68 20 5   96.37     LegendNANA
19:00 8.5 4.7 77 20 2   96.33     LegendNANA
20:00 6.3 4.4 87   0   96.26     LegendNANA
21:00 4.3 3.3 93 10 1   96.15     LegendNANA
22:00 3.2 2.5 95 0 1   96.08     LegendNANA
23:00 2.7 2.1 96 0 1   95.99     LegendNANA

Notes on Data Quality.

Legend

  • E = Estimated
  • M = Missing
  • NA = Not Available
  • ‡ = Partner data that is not subject to review by the National Climate Archives
Date modified: